LiveATC.Net - Listen to live air traffic control over the Internet!


ICAO: KLRD  IATA: LRD   Airport: Laredo International Airport
City: Laredo   State/Province: Texas
Country: United States   Continent: North America
KLRD METAR Weather: KLRD 250156Z 12019G23KT 10SM CLR 33/23 A2985 RMK AO2 SLP103 T03280228
KLRD Flight Activity (FlightAware)
KLRD Airport Info   (iFlightPlanner)
KLRD VFR Sectional Chart   (iFlightPlanner) 
KLRD IFR Low Chart   (iFlightPlanner) 

KLRD Ground/Tower
Feed Status: UP   Listeners: 0
Listen in your browser - HTML5 player (in browser, HTML5)
Click here to listen with your own player (launches your MP3 player)
Archive Access: KLRD Ground/Tower
FacilityFrequency
Laredo Ground121.800
Laredo Tower120.100
Laredo UNICOM122.950

NOTICE

Unauthorized use prohibited. See LiveATC.net Terms of Service


Airport/ARTCC Code
Frequency Search
(e.g., 124.400, 128.75)
Site-wide search
 


Browse Feeds
Top 50 Feeds
HF Oceanic Feeds
Coverage Map
Bad Weather Areas

LiveATC FAQ
Offer LiveATC feed
Contact LiveATC.net
Press Inquiries

LiveATC on iPhone
LiveATC on Android

Windows Phone
Windows 8/10

LiveATC Mobile
(Mobile browser)

ATC Audio Archives
Interesting Recordings

LiveATC Forums


Home Page
About LiveATC.net
Make a Donation
Terms of Use
Privacy Policy

Canadian Air Freqs

AIRMETs/SIGMETs

FAA Airport Status
NAS Status
Arrival Demand


Server Software By:
Icecast.org
Liquidsoap